Location: Nebula Knoll Observatory
(43.6666°N, 71.0000°W)
Time: 11:19:13
(UTC-04:00)

Cosmos 1782 - Visible Passes

Search period start: 29 May 2016 00:00
Search period end: 08 June 2016 00:00
Orbit: 541 x 555 km, 82.5° (Epoch: 28 May)

Date Brightness Start Highest point End Pass type
(mag) Time Alt. Az. Time Alt. Az. Time Alt. Az.
29 May 5.7 03:39:04 10° NNE 03:41:53 18° ENE 03:44:41 10° ESE visible
30 May 5.6 03:34:03 10° NNE 03:37:01 19° ENE 03:39:57 10° ESE visible
31 May 5.4 03:29:03 10° NNE 03:32:08 21° ENE 03:35:11 10° ESE visible
01 Jun 5.3 03:24:03 10° NNE 03:27:15 22° ENE 03:30:24 10° SE visible
02 Jun 5.1 03:19:04 10° NNE 03:22:21 24° ENE 03:25:36 10° SE visible
03 Jun 5.0 03:14:06 10° NNE 03:17:27 25° ENE 03:20:49 10° SE visible
04 Jun 4.8 03:09:07 10° NNE 03:12:33 27° ENE 03:16:00 10° SE visible
05 Jun 4.7 03:04:08 10° NNE 03:07:40 29° ENE 03:11:10 10° SE visible
06 Jun 4.5 02:59:10 10° NNE 03:02:45 31° ENE 03:06:20 10° SE visible
07 Jun 4.4 02:54:11 10° N 02:57:51 33° ENE 03:01:29 10° SE visible
